Starlink 35592

operational
NORAD ID: 66136 Int'l Des: 2025-237 Owner: SPXS Country: US Constellation: starlink
LEOCIRCULAR

About Starlink 35592

Description loading...

Live Position

Loading 3D Globe...

Upcoming Passes

Altitude History

Altitude vs Time

uPlot chart will show altitude changes over time

Two-Line Element Set

1 66136C 25237Y 25298.72131944 -.01204400 00000+0 -18614-2 0 2984
2 66136 53.1546 319.2530 0000890 61.7589 128.0180 16.04698601 16
Epoch: Oct 25, 2025 • Age: 144 hours

Current Status

Altitude 291.8 km
Velocity 7.74 km/s
Sub-Earth Point 53.22°N, 18.53°W
Launch Date Oct 22, 2025
Age 9 days
Type internet

Technical Details

Classification Payload
Mass 575.00 kg
Dry Mass 530.00 kg
Total Mass 575.00 kg
Length 0.30 m
Diameter 4.10 m
Span 29.00 m
Shape Box + pan
Manufacturer SPXS
Bus Type Starlink V2MO
Phase Status In Orbit
Owner/State SPXS/US

Large Constellations

Loading constellations...